Regional Weather Roundup
Issued by NWS San Angelo, TX

Home | Current Version | Previous Version | Text Only | Print | Product List | Glossary On
Versions: 1 2 3 4 5 6 7 8 9 10 11 12 13 14 15 16 17 18 19 20 21 22 23 24 25 26 27 28 29 30 31 32 33 34 35 36 37 38 39 40 41 42 43 44 45 46 47 48 49 50
000
ASUS44 KSJT 051511
RWRSJT
WEST CENTRAL TEXAS REGIONAL WEATHER ROUNDUP
NATIONAL WEATHER SERVICE SAN ANGELO TX
1000 AM CDT SAT SEP 05 2015

NOTE: "FAIR" INDICATES FEW OR NO CLOUDS BELOW 12,000 FEET WITH NO
SIGNIFICANT WEATHER AND/OR OBSTRUCTIONS TO VISIBILITY.

TXZ049-054-064>066-071>073-076>078-098-099-113-114-127-128-139-140-
154-155-168>170-051600
...LOCATIONS ACROSS WEST CENTRAL TEXAS...

CITY           SKY/WX    TMP DP  RH WIND       PRES   REMARKS
SAN ANGELO     SUNNY     83  70  64 S10       30.02S
ABILENE        SUNNY     82  70  66 S15       30.04R
DYESS AFB      MOSUNNY   83  71  66 S13       30.02R
JUNCTION       SUNNY     81  69  67 S9        30.04S
SWEETWATER     SUNNY     81  68  63 S14       30.07R
BROWNWOOD      PTSUNNY   82  72  69 S9        30.04R
COLEMAN        PTSUNNY   82  72  71 S13       30.05R
SONORA         CLOUDY    77  72  83 S10       30.10R
OZONA          FAIR      79  68  69 SE15      30.08R
BRADY          NOT AVBL
$$

TEXAS PANHANDLE/OKLAHOMA PANHANDLE

CITY           SKY/WX    TMP DP  RH WIND       PRES   REMARKS
AMARILLO       SUNNY     79  58  48 SW13      30.09R
BORGER         SUNNY     81  61  50 S9        30.04S
CANADIAN       SUNNY     81  67  62 S10       30.02S
DALHART        MOSUNNY   79  56  45 S13       30.08S
DUMAS          SUNNY     79  55  43 SW15      30.07R
GUYMON         NOT AVBL
HEREFORD       SUNNY     79  59  50 SW15      30.11R
PAMPA          SUNNY     82  62  51 SW14      30.07S
PERRYTON       SUNNY     81  64  55 S16       30.03S
$$

SOUTHERN PANHANDLE/SOUTH PLAINS/ROLLING PLAINS

CITY           SKY/WX    TMP DP  RH WIND       PRES   REMARKS
LUBBOCK        MOSUNNY   80  63  55 SW15      30.08R
SNYDER         SUNNY     80  68  68 S13       30.05S
CHILDRESS      SUNNY     82  64  54 SW7       30.02R
SEMINOLE       SUNNY     79  63  59 S12       30.09S
$$

PERMIAN BASIN

CITY           SKY/WX    TMP DP  RH WIND       PRES   REMARKS
MIDLAND        SUNNY     80  68  66 S9        30.05R
ODESSA         SUNNY     80  67  64 S10       30.06R
WINK           SUNNY     80  67  64 SE15      30.01S
$$

FAR WEST/SOUTHWEST MOUNTAINS/TRANS PECOS

CITY           SKY/WX    TMP DP  RH WIND       PRES   REMARKS
ALPINE         SUNNY     78  58  50 S12       30.17S
DRYDEN           N/A     80  71  74 VRB3      30.01R
EL PASO        PTSUNNY   79  55  43 N6        30.06R
FORT STOCKTON  SUNNY     79  67  66 S15G24    30.04R
GUADALUPE PASS MOSUNNY   75  55  49 E16       30.18R
MARFA          SUNNY     73  59  60 S6        30.17R
PECOS          SUNNY     81  65  57 SE9       30.00S
$$

DALLAS/FORT WORTH METROPLEX

CITY           SKY/WX    TMP DP  RH WIND       PRES   REMARKS
DFW AIRPORT    MOSUNNY   86  73  65 S9        30.02R
FTW MEACHAM    SUNNY     86  73  65 S10       30.01R
DAL-EXECUTIVE  SUNNY     84  72  67 VRB5      30.02S
GRAND PRAIRIE  SUNNY     84  73  70 SW9       30.04R
ADDISON        MOSUNNY   84  72  65 SE12      30.04
MESQUITE       MOSUNNY   84  73  70 S6        30.04R
LANCASTER      SUNNY     84  71  63 S9        30.04R
$$

NORTH CENTRAL TEXAS

CITY           SKY/WX    TMP DP  RH WIND       PRES   REMARKS
SHRMAN/DENISON MOSUNNY   85  74  69 S7        30.04R
GAINESVILLE    MOSUNNY   83  72  69 S9        30.04S
BRIDGEPORT     SUNNY     84  73  69 SW6       30.03S
DENTON         SUNNY     84  73  69 S9        30.01S
WAXAHACHIE     MOSUNNY   82  74  76 S6        30.04S
GRANBURY       SUNNY     85  72  64 S9        30.03R
$$

WESTERN NORTH TEXAS

CITY           SKY/WX    TMP DP  RH WIND       PRES   REMARKS
WICHITA FALLS  MOSUNNY   84  70  62 S12       30.00S
VERNON         MOSUNNY   84  64  50 S13       30.01R
BRECKENRIDGE   SUNNY     85  69  57 S9        30.02R HAZE
COMANCHE       MOSUNNY   83  73  70 SE6       30.04R
$$

CENTRAL AND SOUTH CENTRAL TEXAS

CITY           SKY/WX    TMP DP  RH WIND       PRES   REMARKS
AUSTIN/BERGSTM PTSUNNY   83  75  77 S10       30.02R
WACO           PTSUNNY   85  74  69 S13       30.02R
HILLSBORO      MOSUNNY   86  71  61 S13       30.03R
TEMPLE         PTSUNNY   82  72  69 S12G17    30.03R
KILLEEN-GRAY   PTSUNNY   82  72  69 S12       30.03R
FORT HOOD      PTSUNNY   83  74  74 S13       30.02S
GEORGETOWN     PTSUNNY   82  72  69 S15G23    30.03S
LAGO VISTA     PTSUNNY   82  72  73 SW7       30.06R
SAN MARCOS     PTSUNNY   82  77  83 SE7       30.03R
NEW BRAUNFELS  PTSUNNY   86  76  71 S7        30.01R
RANDOLPH AFB   PTSUNNY   85  74  68 S10       30.02R
SAN ANTONIO    PTSUNNY   84  74  71 S9        30.02R
STINSON        MOSUNNY   86  74  67 SE10      29.99S
PLEASANTON     NOT AVBL
LA GRANGE      PTSUNNY   84  80  86 S6        30.01R
GIDDINGS       PTSUNNY   82  76  82 S5        30.06S
$$

EAST TEXAS

CITY           SKY/WX    TMP DP  RH WIND       PRES   REMARKS
PARIS          MOSUNNY   84  70  61 W7        30.05R
CLARKSVILLE    NOT AVBL
TYLER          SUNNY     84  74  71 W9        30.05R
LONGVIEW       SUNNY     85  75  72 SW3       30.05R
PALESTINE      PTSUNNY   83  76  81 SW3       30.05S
NACOGDOCHES    MOSUNNY   82  75  78 S7        30.05R
$$

TEXAS HILL COUNTRY AND EDWARDS PLATEAU

CITY           SKY/WX    TMP DP  RH WIND       PRES   REMARKS
LLANO          MOSUNNY   82  70  65 SW9       30.06S
HORSESHOE BAY  FAIR      83  72  69 SW5       30.04R
KERRVILLE      PTSUNNY   80  72  77 S13       30.05S
FREDERICKSBRG  CLOUDY    83  68  60 S10G18    30.05S
ROCKSPRINGS    CLOUDY    75  72  88 SE10      30.09R FOG
HONDO          PTSUNNY   84  74  71 S13       30.03R
UVALDE         PTSUNNY   82  73  76 SE8       30.01R
DEL RIO        CLOUDY    81  73  76 E13       29.97R
$$

SOUTHEAST TEXAS

CITY           SKY/WX    TMP DP  RH WIND       PRES   REMARKS
COLLEGE STN    PTSUNNY   83  77  82 S9        30.04R
CALDWELL       CLOUDY    82  81  94 S9        30.06S
CROCKETT       SUNNY     84  75  74 S5        30.08R
BRENHAM        CLOUDY    81  81  99 CALM      30.04R
HUNTSVILLE     MOSUNNY   85  75  72 SW8       30.05R
CONROE         CLOUDY    84  75  74 S3        30.05R
HOUSTON BUSH   PTSUNNY   86  78  77 SE6       30.03R
HOUSTON HOBBY  PTSUNNY   86  78  77 S6        30.02R
PERLAND        MOSUNNY   86  78  77 S7        30.04R
WHARTON        MOSUNNY   86  79  78 SE9       30.02S
$$

THE UPPER TEXAS COAST

CITY           SKY/WX    TMP DP  RH WIND       PRES   REMARKS
ORANGE         SUNNY    N/A N/A N/A CALM      30.06R
PORT ARTHUR    MOSUNNY   86  78  77 VRB3      30.04R
GALVESTON      PTSUNNY   85  78  80 SE9       30.04R
ANGLETON       LGT RAIN  85  80  85 S7        30.02R
BAY CITY       MOSUNNY   85  82  91 CALM      30.01S
$$

TEXAS COASTAL BEND, RIO GRANDE PLAINS DEEP SOUTH TEXAS

CITY           SKY/WX    TMP DP  RH WIND       PRES   REMARKS
VICTORIA       SUNNY     80  78  94 E3        30.01R
BEEVILLE       FAIR      86  80  82 S10G17    29.99R
ROCKPORT       MOSUNNY   88  79  74 S9G18     29.98R
PORT ARANSAS   PTSUNNY   88  80  76 S14       29.99R
PORT LAVACA    MOSUNNY   86  80  81 S9G17     30.00S
CORPUS CHRISTI MOSUNNY   86  77  74 S14       29.98R
KINGSVILLE NAS MOSUNNY   88  80  77 SE16G22   29.98R
COTULLA        MOSUNNY   86  75  69 S15G21    29.97R
LAREDO         SUNNY     88  74  63 SE17      29.97R
BROWNSVILLE    MOSUNNY   88  75  65 S21       29.98R
PORT ISABEL    SUNNY     90  77  65 S22       29.97R
HEBBRONVILLE   NOT AVBL
MCALLEN        MOSUNNY   87  77  72 S16G31    29.97R
WESLACO        PTSUNNY   85  77  77 S10       29.98R
FALFURRIAS     PTSUNNY   87  77  71 SE12G17   29.96S
EDINBURG       MOSUNNY   88  75  66 SE17G23   29.98R HAZE
$$


USA.gov is the U.S. government's official web portal to all federal, state and local government web resources and services.